This demonstration page uses our WeatherBlox Daily Observations layout. Learn more.

Left ArrowRight Arrow

34.02893, -84.19858

Hourly Observations for March 31, 2022

Temp ( °F °C ) Dew Point ( °F °C ) Humidity (%) Winds ( mph kmh ) Pressure ( in mb ) Visibility ( mi km ) Precip ( " mm )
12:53 am 00:53 Clear 70 21.1 56 13.3 61 61 SSE 15 24 29.70 1006 10 16 0.00 0.00
1:53 am 01:53 Cloudy 70 21.1 57 13.9 64 64 S 20 31 29.70 1006 10 16 0.00 0.00
2:53 am 02:53 Cloudy 69 20.6 58 14.4 68 68 S 12 19 29.66 1004 10 16 0.00 0.00
3:53 am 03:53 Cloudy with Light Rain 67 19.4 59 15 76 76 S 12 19 29.65 1004 10 16 0.00 0.00
4:53 am 04:53 Cloudy with Rain 64 17.8 59 15 84 84 S 21 33 29.62 1003 5 8 0.09 2.29
5:31 am 05:31 Cloudy with Rain 63 17.2 61 16.1 93 93 S 13 20 29.65 1004 4 6 0.17 4.32
5:53 am 05:53 Cloudy with Heavy Rain 62 16.7 61 16.1 96 96 SSW 8 13 29.62 1003 2 3 0.30 7.62
6:01 am 06:01 Cloudy with Heavy Rain 62 16.7 61 16.1 96 96 SSW 10 17 29.64 1004 2 2 0.08 2.03
6:11 am 06:11 Cloudy with Rain 62 16.7 61 16.1 96 96 WSW 13 20 29.67 1005 2 2 0.20 5.08
6:26 am 06:26 Cloudy with Light Rain 62 16.7 61 16.1 96 96 SSE 9 15 29.63 1003 3 5 0.46 11.68
6:46 am 06:46 Cloudy with Light Rain 63 17.2 61 16.1 93 93 S 9 15 29.61 1003 10 16 0.47 11.94
6:53 am 06:53 Cloudy 63 17.2 61 16.1 93 93 SW 9 15 29.60 1002 10 16 0.47 11.94
7:53 am 07:53 Cloudy 62 16.7 61 16.1 96 96 SW 8 13 29.61 1003 10 16 0.00 0.00
8:00 am 08:00 Cloudy 62 16.7 61 16.1 96 96 SSW 9 15 29.65 1004 10 16 0.00 0.00
8:53 am 08:53 Cloudy 62 16.7 60 15.6 93 93 W 14 22 29.63 1004 10 16 0.00 0.00
9:53 am 09:53 Cloudy 62 16.7 57 13.9 84 84 WSW 9 15 29.66 1004 10 16 0.00 0.00
10:00 am 10:00 Mostly Sunny 63 17.2 57 13.9 81 81 WSW 9 15 29.67 1005 10 16 0.00 0.00
10:07 am 10:07 Mostly Cloudy 63 17.2 57 13.9 81 81 WSW 10 17 29.67 1005 10 16 0.00 0.00
10:53 am 10:53 Mostly Cloudy 64 17.8 55 12.8 73 73 WSW 13 20 29.68 1005 10 16 0.00 0.00
11:53 am 11:53 Mostly Cloudy 67 19.4 54 12.2 63 63 WSW 15 24 29.68 1005 10 16 0.00 0.00
12:00 pm 12:00 Sunny 67 19.4 55 12.8 66 66 SW 12 19 29.70 1006 10 16 0.00 0.00
12:53 pm 12:53 Mostly Cloudy 68 20 54 12.2 61 61 SSW 17 28 29.67 1005 10 16 0.00 0.00
1:53 pm 13:53 Mostly Cloudy 69 20.6 54 12.2 59 59 SW 15 24 29.66 1004 10 16 0.00 0.00
2:53 pm 14:53 Mostly Cloudy 70 21.1 52 11.1 53 53 SSW 17 28 29.66 1004 10 16 0.00 0.00
3:53 pm 15:53 Mostly Cloudy 69 20.6 50 10 51 51 SW 20 31 29.65 1004 10 16 0.00 0.00
4:53 pm 16:53 Mostly Cloudy 72 22.2 50 10 46 46 WSW 13 20 29.65 1004 10 16 0.00 0.00
5:53 pm 17:53 Mostly Sunny 71 21.7 46 7.8 41 41 SW 16 26 29.66 1004 10 16 0.00 0.00
6:53 pm 18:53 Sunny 69 20.6 44 6.7 41 41 WSW 8 13 29.69 1005 10 16 0.00 0.00
7:53 pm 19:53 Sunny 64 17.8 39 3.9 40 40 W 13 20 29.72 1007 10 16 0.00 0.00
8:53 pm 20:53 Clear 61 16.1 40 4.4 46 46 W 8 13 29.75 1008 10 16 0.00 0.00
9:53 pm 21:53 Partly Cloudy 60 15.6 38 3.3 44 44 W 8 13 29.79 1009 10 16 0.00 0.00
10:53 pm 22:53 Clear 57 13.9 39 3.9 51 51 W 9 15 29.82 1010 10 16 0.00 0.00
11:53 pm 23:53 Clear 56 13.3 40 4.4 55 55 WNW 9 15 29.83 1010 10 16 0.00 0.00

Powered by AerisWeather